Location: Bakov nad Jizerou
(50.4784°N, 14.9394°E)
Time: 04:28:35
(UTC+00:00)

Cosmos 1727 Rocket - Pass Details

Date: 26 October 2021
Orbit: 960 x 997 km, 82.9° (Epoch: 07 December)

Event Time Altitude Azimuth Distance (km) Brightness Sun altitude
Rises 17:18:55 0° 341° (NNW) 3,673 7.2 -15.3°
Reaches altitude 10° 17:21:54 10° 329° (NNW) 2,716 6.7 -15.7°
Maximum altitude 17:26:38 24° 279° (W) 1,904 6.5 -16.5°
Drops below altitude 10° 17:31:20 10° 228° (SW) 2,693 7.0 -17.2°
Sets 17:34:18 0° 215° (SW) 3,634 7.5 -17.7°
